Wind_Speed
24 26 29 30 33 38 37 37 41 44 45 44 42 42 44 45 45 45 48 50 48 47 52 54 56 54 52 49 45 47 46 44 41 40 40 37 35 32 31 31 26 25 25 24 23 24 23
26 28 29 31 35 37 35 37 40 39 41 39 40 41 40 39 39 40 40 40 42 43 47 50 54 54 52 49 47 46 46 44 41 41 39 36 36 36 32 26 26 25 25 24 22 23 24
27 29 29 31 35 33 34 36 37 36 35 36 36 32 32 34 33 30 32 34 37 41 44 49 52 54 51 49 47 44 45 43 41 41 38 36 32 35 31 32 32 29 24 22 22 23 22
27 29 30 33 33 31 32 34 32 32 31 33 26 24 23 20 22 27 29 31 36 37 43 46 49 50 48 48 45 43 44 43 41 39 36 35 33 35 28 30 26 21 23 21 21 25 22
28 28 29 32 30 29 30 30 27 28 29 28 19 13 9 10 17 26 27 28 32 33 41 41 45 46 47 45 44 42 42 41 40 38 35 34 32 30 33 34 35 28 23 23 23 24 24
27 26 28 30 26 26 27 26 24 26 25 23 18 11 4 5 15 23 23 24 27 32 37 40 42 43 42 42 41 40 40 39 38 36 34 33 32 31 29 30 25 24 26 23 23 25 24
26 25 27 27 22 22 23 24 22 24 23 21 18 13 9 12 15 18 20 23 29 34 36 39 40 40 40 39 38 38 38 37 36 34 33 32 28 26 23 25 25 27 29 26 24 26 25
23 23 25 25 19 18 19 23 23 22 22 20 18 15 15 17 21 25 30 34 36 38 38 38 37 37 37 36 34 35 35 35 34 32 31 32 29 28 29 29 28 29 28 26 26 27 28
21 20 22 22 15 15 16 18 21 22 19 20 18 16 19 24 28 31 34 36 36 36 36 35 34 35 34 33 34 34 34 34 32 30 28 28 28 28 28 27 27 27 27 27 27 26 27
19 18 19 20 12 11 12 14 16 20 19 18 19 18 20 26 30 32 33 33 33 33 32 32 33 33 33 31 31 34 33 33 30 27 26 28 26 24 24 25 25 25 25 25 26 26 26
17 15 15 16 11 7 8 10 11 13 17 17 18 20 22 24 28 28 28 29 28 28 29 30 30 30 29 32 31 29 30 29 27 25 23 24 22 22 22 20 20 20 22 24 25 27 28
16 15 13 12 13 6 5 8 11 7 11 13 16 17 19 21 24 24 25 25 25 18 19 28 27 29 31 28 29 32 26 26 23 22 22 22 22 21 21 22 22 23 24 26 27 28 30
16 14 12 9 10 6 5 6 10 3 4 7 11 12 13 22 21 22 22 22 20 18 18 25 25 24 37 33 28 26 24 21 19 18 18 19 20 20 21 22 23 24 25 27 30 29 30
16 14 12 9 8 6 6 5 6 3 2 5 9 9 11 20 20 21 21 19 15 16 13 20 21 20 19 19 21 20 17 16 15 17 17 18 18 18 19 21 23 25 26 28 32 30 29
17 14 13 10 7 6 8 6 3 2 4 5 9 12 17 19 21 22 21 14 14 13 17 18 17 17 18 19 17 15 15 15 15 15 16 16 17 18 20 22 24 25 26 27 29 30 30
19 16 14 12 9 7 6 10 5 4 4 6 9 12 18 22 23 23 18 16 15 13 14 14 15 16 16 16 15 14 14 14 14 15 16 16 18 19 21 22 23 25 25 25 27 30 30
23 19 16 13 12 9 6 13 11 8 6 6 8 10 13 17 19 22 19 19 17 16 14 14 14 14 14 13 13 13 13 14 15 16 17 18 19 19 22 22 23 24 25 26 28 30 32
27 22 19 16 14 13 11 14 17 13 7 6 6 8 11 14 16 17 16 15 14 13 13 13 14 13 13 13 13 14 15 16 16 17 19 20 20 20 22 23 24 24 25 26 28 29 31
31 27 23 19 16 16 15 14 21 19 14 9 6 7 9 12 14 14 15 15 13 11 10 10 9 10 11 11 12 13 15 16 16 17 18 19 19 19 20 22 22 24 25 27 28 29 30
35 32 27 24 20 18 18 19 19 23 20 16 12 9 10 12 14 14 14 14 13 12 10 9 9 10 11 12 12 12 14 14 15 16 16 17 18 19 21 21 21 23 25 28 30 32 34
40 36 32 28 24 21 20 21 21 21 21 20 16 13 13 13 13 14 13 11 11 11 9 9 10 10 10 10 11 12 12 13 14 15 16 16 17 19 21 22 24 26 29 31 33 36 39
44 40 37 32 28 26 23 23 22 22 21 20 17 16 15 14 14 13 12 12 12 10 9 9 9 9 9 9 10 11 11 12 14 15 17 18 19 22 24 27 29 30 32 35 38 39 41
46 44 41 36 32 29 26 25 24 24 22 20 18 17 15 14 12 13 12 10 9 9 9 9 9 9 10 10 11 12 14 15 17 19 21 23 25 27 27 30 34 35 34 36 37 37 37
46 48 45 40 36 32 29 27 26 25 25 23 21 18 16 14 12 11 10 10 10 11 11 12 12 13 14 14 16 17 18 19 21 22 24 26 29 32 34 34 35 34 35 36 35 33 33
48 52 48 45 40 36 32 30 28 27 25 24 23 20 18 16 14 13 13 12 12 13 14 15 15 16 16 17 19 20 21 23 25 27 29 31 32 33 32 33 34 34 34 32 32 31 31
49 54 52 49 44 40 37 34 32 30 28 26 23 21 19 17 15 15 15 14 14 15 15 16 17 18 19 21 22 24 26 27 28 27 27 29 31 32 34 35 35 32 32 32 31 33 37
53 57 56 53 48 44 41 38 34 32 30 28 25 23 21 20 19 18 18 18 18 19 20 21 22 22 22 23 24 24 23 25 26 27 28 30 31 30 32 34 34 33 34 36 39 41 43
55 58 60 56 52 49 45 41 38 35 33 30 29 27 25 24 23 22 22 22 22 22 21 21 21 21 21 22 22 23 24 24 24 24 24 26 28 28 31 33 35 37 38 41 43 44 47
60 61 62 59 56 52 48 45 41 38 36 34 32 30 28 26 25 25 24 23 22 20 19 19 18 19 21 21 20 20 20 20 21 21 25 25 28 30 32 35 37 40 44 45 46 44 42
Wind_Direction
308 309 308 311 313 312 310 307 304 302 300 298 292 284 275 270 266 258 250 246 238 232 224 223 216 215 216 217 214 213 213 214 216 217 217 219 226 236 234 239 240 246 246 247 258 270 272
314 313 314 317 317 316 313 310 311 309 307 302 295 289 282 271 261 254 245 239 231 224 217 210 208 208 211 211 211 210 211 211 212 217 216 219 223 230 242 231 244 249 249 254 255 261 268
320 318 319 320 321 319 315 317 319 316 314 310 306 291 275 269 262 244 222 216 217 217 210 202 203 203 205 205 206 207 209 209 211 216 215 216 226 229 235 241 246 256 252 255 260 262 265
321 324 323 324 326 322 322 327 325 325 326 327 314 292 280 260 236 216 202 207 208 209 201 199 197 199 199 200 202 204 207 207 209 215 217 215 224 233 230 245 239 254 261 259 261 265 271
323 326 326 327 330 327 334 335 334 334 342 340 329 308 275 253 221 196 193 200 201 200 193 193 190 194 194 196 198 201 204 206 207 212 214 214 223 223 230 240 238 255 267 263 261 267 270
322 328 329 331 333 335 346 345 345 345 353 353 4 4 1 217 188 182 183 190 189 188 182 181 183 188 189 192 194 197 200 204 206 210 213 215 223 226 236 239 251 256 261 266 267 266 272
322 329 330 334 336 345 356 359 357 356 3 7 18 39 79 116 141 153 157 160 164 165 168 175 175 183 184 188 192 194 198 202 206 208 213 217 218 221 237 242 253 261 266 266 267 268 267
322 329 330 337 339 350 3 10 10 8 15 26 32 58 92 119 132 141 146 148 151 155 164 169 172 176 181 184 188 192 197 201 204 207 214 221 227 234 241 246 250 253 261 265 264 268 271
320 327 330 338 340 354 6 12 13 22 20 44 54 72 96 111 122 129 134 139 147 153 162 164 168 173 175 182 186 189 196 200 203 205 212 221 225 231 240 246 252 256 259 264 270 272 275
314 322 328 339 336 351 8 14 13 27 32 52 66 81 99 111 118 125 131 139 146 153 159 161 168 170 176 181 187 192 196 198 201 203 210 221 225 232 240 246 251 256 261 266 269 272 275
306 314 322 336 331 337 1 1 10 28 41 60 75 89 101 113 120 125 133 139 147 153 159 164 166 171 177 185 187 192 197 197 197 201 212 223 228 231 238 247 253 258 262 264 268 272 276
296 304 312 324 338 309 333 337 342 23 53 73 86 98 109 120 121 130 135 142 144 155 165 163 169 177 179 180 188 192 186 194 196 202 215 223 229 234 241 247 256 260 263 267 272 277 280
286 294 296 307 329 289 294 317 342 352 88 93 100 111 120 127 134 135 140 142 150 159 165 167 176 187 191 187 188 193 195 198 202 211 221 228 231 236 244 250 256 263 270 276 277 280 286
275 284 285 288 297 315 248 283 331 14 134 157 142 136 135 136 143 140 134 143 152 157 167 174 179 191 191 188 193 192 194 199 204 212 218 225 231 239 250 256 262 268 273 276 281 285 285
263 270 275 271 267 297 232 236 286 75 106 150 178 173 154 151 148 143 143 144 147 157 158 172 179 184 188 190 190 195 201 207 212 219 229 237 243 249 255 261 266 270 272 276 279 281 283
252 258 259 261 250 248 233 213 216 164 129 136 160 171 168 160 157 152 148 143 144 152 160 168 174 182 187 190 195 201 207 214 224 232 240 246 252 256 261 265 268 270 274 277 280 283 286
243 247 246 248 245 229 230 203 194 184 145 139 159 167 175 174 169 163 155 150 152 154 156 163 175 184 192 197 203 210 218 227 234 241 248 253 257 260 264 268 272 276 279 280 282 284 286
240 236 237 236 236 227 214 202 194 190 169 140 134 171 188 193 185 179 172 163 167 171 179 185 190 198 206 212 220 227 236 241 246 252 258 263 267 270 271 273 275 277 279 280 281 283 285
237 231 231 227 226 226 214 205 200 203 202 194 179 176 177 181 188 193 199 206 208 207 207 211 216 223 231 240 243 248 254 258 262 265 268 270 274 274 274 274 275 277 279 280 283 286 290
233 228 226 223 219 219 219 208 205 208 214 217 217 208 190 173 173 183 191 195 200 211 220 224 230 233 235 238 242 245 252 257 261 264 266 268 269 271 274 277 278 280 283 285 287 290 290
231 225 222 220 216 214 217 215 209 208 211 220 224 207 197 189 188 191 197 204 216 226 233 234 237 241 242 245 249 251 254 256 258 261 264 268 272 275 278 281 282 284 288 290 292 293 293
231 222 220 217 214 212 210 215 214 210 209 210 211 207 204 199 201 205 207 209 215 220 223 226 231 234 239 241 245 251 254 259 263 267 270 273 276 278 282 286 287 290 294 293 294 293 293
230 220 217 215 213 210 209 209 211 210 206 204 204 204 201 196 197 201 204 207 210 220 227 234 239 244 249 254 259 263 267 269 271 275 278 282 284 285 287 289 291 294 292 292 291 292 292
227 218 214 213 211 208 206 206 207 207 204 198 196 194 195 197 203 213 221 225 230 238 245 250 253 255 259 263 266 269 271 274 278 280 284 286 288 289 292 293 292 294 295 294 294 296 298
223 215 213 211 208 207 204 203 204 202 201 198 194 194 199 204 211 219 229 239 250 256 261 264 267 270 273 274 276 279 281 284 285 288 289 289 290 292 294 293 295 296 295 295 298 299 295
217 212 210 209 207 207 205 203 203 203 203 204 203 203 208 215 224 232 240 249 257 265 269 272 274 277 280 283 284 285 287 289 290 290 290 290 291 293 295 294 294 295 296 297 297 294 296
213 209 207 208 206 206 206 206 205 206 208 211 214 216 219 228 237 245 254 261 266 271 274 276 276 278 280 283 285 288 289 293 293 292 292 292 293 297 298 298 301 303 302 301 298 299 297
213 207 206 206 206 206 207 208 208 210 213 216 221 225 228 234 242 249 255 260 265 269 271 272 275 276 279 282 285 288 290 290 293 293 295 298 302 303 302 305 305 303 301 299 299 299 303
208 206 205 204 205 206 207 208 210 213 216 219 223 228 232 238 245 251 258 263 266 264 269 272 273 273 277 279 282 284 287 291 294 300 303 306 305 304 303 305 306 307 307 306 307 308 306
Height
5789 5785 5781 5777 5771 5766 5760 5754 5748 5740 5733 5727 5720 5714 5710 5708 5708 5708 5711 5716 5723 5730 5739 5751 5763 5774 5785 5796 5804 5812 5820 5827 5834 5840 5845 5851 5855 5859 5861 5864 5867 5869 5871 5872 5873 5873 5874
5785 5781 5776 5771 5765 5759 5752 5746 5739 5731 5724 5716 5708 5701 5695 5693 5693 5694 5699 5705 5713 5721 5730 5741 5753 5765 5778 5790 5797 5806 5814 5822 5829 5834 5841 5848 5852 5855 5858 5861 5864 5866 5867 5869 5871 5871 5870
5781 5776 5771 5765 5759 5753 5746 5739 5732 5724 5716 5707 5696 5688 5683 5681 5681 5685 5691 5697 5705 5714 5723 5734 5746 5759 5772 5782 5791 5800 5809 5817 5824 5830 5837 5843 5848 5852 5855 5857 5859 5861 5863 5865 5866 5866 5867
5777 5772 5767 5761 5754 5747 5741 5734 5726 5719 5710 5699 5688 5680 5675 5673 5675 5679 5685 5692 5700 5708 5718 5729 5741 5754 5766 5777 5787 5796 5804 5813 5819 5826 5833 5839 5844 5847 5850 5854 5856 5858 5860 5862 5862 5861 5863
5773 5768 5763 5757 5750 5744 5737 5730 5723 5716 5705 5694 5683 5675 5671 5671 5672 5676 5683 5690 5697 5706 5716 5727 5739 5752 5762 5774 5783 5791 5800 5809 5815 5822 5829 5835 5839 5843 5848 5849 5852 5854 5855 5856 5857 5857 5857
5771 5765 5760 5754 5747 5742 5735 5729 5722 5714 5704 5693 5683 5676 5671 5669 5672 5677 5683 5690 5698 5707 5717 5729 5740 5752 5763 5772 5780 5789 5797 5805 5812 5819 5825 5831 5835 5839 5842 5845 5850 5850 5850 5851 5852 5852 5852
5768 5763 5758 5752 5746 5741 5736 5729 5722 5714 5705 5695 5686 5680 5676 5674 5676 5681 5686 5693 5702 5712 5723 5733 5741 5751 5761 5771 5779 5788 5796 5803 5809 5816 5822 5826 5831 5836 5841 5840 5843 5846 5846 5847 5847 5846 5847
5765 5761 5756 5751 5746 5742 5737 5731 5724 5716 5709 5700 5693 5687 5684 5682 5683 5686 5691 5697 5707 5716 5726 5735 5743 5754 5763 5771 5780 5788 5795 5802 5807 5813 5819 5824 5828 5832 5835 5837 5839 5842 5841 5842 5842 5842 5842
5763 5759 5755 5751 5746 5743 5739 5734 5728 5720 5715 5707 5702 5698 5694 5692 5693 5696 5701 5708 5716 5723 5732 5740 5748 5756 5765 5773 5780 5787 5794 5800 5805 5811 5816 5822 5826 5828 5830 5832 5834 5835 5836 5837 5837 5837 5837
5761 5758 5754 5751 5746 5744 5741 5737 5732 5726 5721 5715 5711 5709 5706 5705 5707 5709 5714 5719 5725 5732 5739 5746 5752 5759 5767 5773 5781 5786 5792 5799 5804 5808 5813 5817 5820 5823 5826 5828 5830 5831 5832 5832 5832 5832 5832
5760 5757 5753 5751 5747 5745 5743 5740 5736 5732 5728 5723 5720 5718 5717 5717 5718 5721 5725 5729 5735 5740 5745 5751 5756 5762 5768 5775 5781 5787 5792 5796 5800 5805 5811 5815 5817 5819 5822 5824 5825 5827 5827 5827 5827 5826 5826
5758 5756 5752 5750 5748 5745 5744 5742 5739 5736 5733 5731 5728 5727 5727 5727 5728 5731 5734 5738 5742 5748 5750 5754 5759 5764 5771 5775 5781 5786 5790 5795 5798 5803 5806 5810 5813 5816 5818 5820 5821 5821 5822 5821 5821 5822 5821
5756 5754 5751 5749 5748 5746 5745 5743 5741 5739 5737 5736 5734 5734 5733 5733 5736 5738 5741 5744 5748 5751 5754 5759 5763 5767 5770 5776 5781 5786 5790 5793 5797 5801 5804 5808 5810 5812 5814 5815 5816 5816 5817 5816 5816 5816 5816
5754 5753 5750 5748 5747 5745 5745 5744 5743 5741 5739 5739 5739 5738 5739 5739 5741 5743 5746 5750 5753 5755 5758 5762 5766 5769 5773 5777 5782 5786 5789 5792 5795 5799 5802 5804 5808 5809 5811 5811 5812 5812 5813 5812 5809 5810 5809
5751 5750 5749 5747 5746 5745 5744 5745 5744 5743 5741 5740 5741 5741 5742 5744 5745 5747 5751 5753 5755 5758 5762 5766 5769 5773 5776 5780 5783 5786 5788 5791 5794 5797 5800 5802 5804 5806 5807 5807 5808 5808 5806 5806 5804 5803 5802
5747 5748 5747 5746 5744 5744 5743 5744 5745 5744 5743 5742 5743 5744 5745 5745 5748 5751 5754 5756 5759 5762 5765 5768 5771 5774 5777 5780 5783 5785 5787 5790 5792 5795 5797 5799 5800 5801 5802 5802 5802 5801 5802 5801 5799 5796 5796
5743 5743 5744 5743 5742 5742 5742 5743 5745 5745 5745 5744 5745 5746 5748 5750 5752 5754 5756 5758 5761 5764 5767 5770 5773 5775 5777 5780 5782 5784 5786 5789 5790 5792 5793 5794 5796 5798 5797 5797 5797 5797 5796 5795 5793 5792 5789
5739 5738 5740 5740 5739 5740 5740 5741 5743 5745 5746 5747 5747 5748 5749 5751 5755 5756 5759 5762 5763 5765 5767 5770 5772 5775 5777 5779 5780 5782 5783 5785 5787 5788 5790 5791 5792 5793 5793 5792 5792 5791 5790 5789 5787 5786 5783
5733 5733 5734 5736 5736 5736 5738 5739 5741 5743 5746 5747 5748 5749 5750 5752 5754 5757 5760 5762 5764 5766 5768 5770 5771 5773 5775 5776 5779 5780 5781 5782 5784 5785 5786 5786 5787 5787 5787 5788 5787 5785 5784 5782 5780 5779 5778
5724 5726 5727 5730 5732 5733 5734 5736 5738 5740 5743 5746 5747 5749 5750 5752 5754 5756 5759 5761 5763 5764 5766 5767 5769 5770 5772 5773 5775 5777 5777 5779 5780 5781 5781 5782 5782 5782 5782 5782 5781 5780 5778 5776 5774 5772 5770
5715 5718 5720 5723 5726 5728 5730 5732 5735 5737 5740 5743 5745 5747 5749 5751 5753 5755 5757 5759 5760 5762 5763 5764 5766 5767 5769 5771 5772 5773 5774 5776 5776 5777 5777 5778 5778 5777 5776 5776 5775 5773 5771 5769 5767 5764 5760
5704 5708 5712 5715 5720 5723 5725 5728 5730 5733 5736 5739 5742 5745 5747 5749 5751 5753 5755 5756 5758 5759 5761 5762 5764 5765 5767 5768 5769 5770 5771 5771 5772 5772 5772 5772 5772 5771 5770 5769 5767 5766 5764 5760 5757 5753 5750
5692 5697 5703 5707 5712 5716 5720 5723 5726 5729 5732 5735 5738 5741 5744 5747 5749 5751 5752 5754 5756 5757 5759 5760 5761 5762 5763 5765 5765 5766 5766 5767 5768 5768 5767 5767 5765 5764 5764 5762 5759 5759 5755 5751 5747 5744 5741
5678 5686 5693 5698 5704 5709 5714 5717 5721 5725 5728 5731 5734 5738 5741 5744 5746 5748 5750 5752 5754 5755 5757 5758 5758 5759 5761 5761 5761 5762 5762 5762 5762 5762 5761 5760 5758 5757 5755 5753 5751 5749 5745 5741 5738 5736 5732
5662 5673 5682 5688 5694 5701 5707 5711 5716 5720 5725 5728 5730 5734 5738 5740 5743 5746 5748 5750 5751 5752 5753 5754 5755 5756 5756 5757 5757 5757 5757 5757 5757 5756 5755 5753 5751 5748 5747 5744 5743 5739 5736 5733 5730 5729 5724
5646 5659 5670 5678 5685 5692 5699 5704 5710 5715 5719 5723 5726 5730 5733 5737 5740 5742 5744 5746 5747 5748 5749 5750 5751 5751 5752 5752 5752 5752 5751 5751 5750 5749 5748 5746 5744 5742 5739 5736 5733 5731 5729 5726 5723 5721 5716
5630 5644 5656 5667 5675 5683 5690 5697 5703 5709 5714 5718 5723 5726 5729 5732 5735 5737 5739 5741 5742 5743 5744 5744 5745 5745 5746 5746 5745 5745 5745 5744 5744 5742 5741 5738 5736 5735 5732 5729 5728 5724 5721 5718 5714 5713 5705
5618 5631 5644 5655 5665 5673 5682 5689 5695 5702 5707 5713 5717 5720 5724 5727 5730 5733 5734 5735 5736 5737 5738 5739 5739 5740 5740 5740 5740 5739 5738 5737 5736 5734 5733 5732 5731 5729 5726 5723 5722 5717 5713 5709 5705 5699 5694
5602 5617 5631 5643 5655 5663 5673 5681 5688 5694 5701 5706 5710 5714 5718 5722 5725 5727 5728 5730 5731 5731 5732 5732 5733 5733 5733 5733 5733 5732 5731 5730 5730 5730 5728 5727 5725 5723 5720 5716 5712 5708 5704 5699 5695 5690 5684